Вернуться в каталог

PSLV R/B

АктивенHEO
NORAD 47257·ROCKET BODY·🇮🇳 India

Запущен Dec 17, 2020 с Satish Dhawan Space Centre

Loading…

Ближайшие Пролёты (ближайшие 24 часа)

TLE

СвежийSource: Space-Track

Эпоха: Sep 14, 2026, 12:42 UTC

1 47257U 20099B   26257.52939741  .00164346  19101-6  14648-2 0  9994
2 47257  17.8132  92.8515 5330682  93.1997 326.1420  5.22468906 91228

Отслеживайте PSLV R/B в реальном времени с AllMySat

Download on the App Store